Regional Weather Roundup
Issued by NWS

Home | Current Version | Previous Version | Graphics & Text | Print | Product List | Glossary On
Versions: 1 2 3 4 5 6 7 8 9 10 11 12 13 14 15 16 17 18 19 20 21 22 23 24 25 26 27 28 29 30 31 32 33 34 35 36 37 38 39 40 41 42 43 44 45 46 47 48 49 50
000
ASUS43 KFSD 300210
RWRSD

WEATHER ROUNDUP FOR SOUTH DAKOTA
NATIONAL WEATHER SERVICE SIOUX FALLS SD
900 PM CDT MON MAY 29 2017

NOTE: "FAIR" INDICATES FEW OR NO CLOUDS BELOW 12,000 FEET WITH NO
SIGNIFICANT WEATHER AND/OR OBSTRUCTIONS TO VISIBILITY.


SDZ001>005-009-010-012>017-300300-
NORTHWEST AND NORTH CENTRAL SOUTH DAKOTA

CITY           SKY/WX    TMP DP  RH WIND       PRES   REMARKS
BUFFALO          N/A     61  31  32 NW14      30.02S
FAITH            N/A     60  32  34 N15       30.05R
MOBRIDGE       MOCLDY    61  36  39 NW12      29.98S
$$

SDZ012>016-024>037-041>051-057-063-072>074-300300-
SOUTHWEST AND SOUTH CENTRAL SOUTH DAKOTA

CITY           SKY/WX    TMP DP  RH WIND       PRES   REMARKS
RAPID CTY ARPT CLEAR     62  28  27 N17       30.09R
PIERRE         PTCLDY    61  35  37 N8        30.01R
CUSTER         CLEAR     56  22  26 VRB3      30.17R
ELLSWORTH AFB  CLEAR     63  29  27 NW14      30.09R
PHILIP         CLEAR     61  34  36 NW9       30.04R
PINE RIDGE     CLEAR     61  38  42 NE7       30.10S
SPEARFISH      FAIR      59  30  33 NW8G15    30.13S
WINNER         FAIR      62  41  46 NW3       30.03S
$$

SDZ004>011-016>023-039-040-300300-
NORTHEAST SOUTH DAKOTA

CITY           SKY/WX    TMP DP  RH WIND       PRES   REMARKS
ABERDEEN       CLOUDY    60  36  40 NW10      29.97R
WATERTOWN      MOCLDY    56  40  55 NW14      29.96R
BROOKINGS      CLEAR     55  43  63 NW8       29.97S
SISSETON         N/A     57  45  64 N7        29.92S
$$

SDZ017-020-022-023-036>040-048>070-300300-
SOUTHEAST SOUTH DAKOTA

CITY           SKY/WX    TMP DP  RH WIND       PRES   REMARKS
SIOUX FALLS    PTCLDY    57  45  64 NW7       29.98S
HURON          CLEAR     59  39  47 N9        29.98R
CHAMBERLAIN    MOCLDY    64  39  39 NW6       30.02R
MITCHELL       PTCLDY    60  47  61 CALM      29.99S
YANKTON        PTCLDY    59  45  59 NW5       30.00F
$$

ABBREVIATIONS USED IN REMARKS
   TC - TEMPERATURE IN CELSIUS
  WCI - WIND CHILL INDEX
   HX - HEAT INDEX
  VSB - VISIBILITY





USA.gov is the U.S. government's official web portal to all federal, state and local government web resources and services.